Alpha, California Weather observations

Data are for observation ending at time listed.
 Day   Time    Ave.   Ave.  Ave.  Vector   Max.   Stn.    Total    Solar   Ave.   Snow 
  of    of     Air    Rel.  Wind   Wind    Wind   Baro.  Precip.   Rad.    Soil   Depth
Year   Day     Temp.  Hum.  Speed  Dir.    Gust   Pres.                    Temp.       
2016   (PST)    F      %     mph   deg.    mph     mb.     in.     W/m2     F      in. 
---------------------------------------------------------------------------------------  
  40    6:40   51.0    13    2.2   114      2.9   795.2    0.00       0    999.0  130.3
  40    6:50   51.0    13    1.8   104      2.7   795.3    0.00       1    999.0  130.2
  40    7:00   50.9    14    1.2   106      2.1   795.5    0.00       2    999.0  116.8
  40    7:10   50.8    15    1.0   117      1.5   795.5    0.00       4    999.0  157.7
  40    7:20   51.5    14    0.9   104      1.5   795.5    0.00      27    999.0  157.9
  40    7:30   53.3    13    0.5   110      1.2   795.5    0.00      33    999.0  157.9
  40    7:40   54.0    13    0.6   157      1.6   795.5    0.00      18    999.0  157.9
  40    7:50   55.0    13    0.8   167      2.3   795.6    0.00      21    999.0  108.7
  40    8:00   55.6    11    2.3   189      4.5   795.7    0.00      85    999.0  137.5
  40    8:10   54.2    11    2.6   197      4.8   795.8    0.00      39    999.0  158.2
  40    8:20   53.9    12    3.3   190      4.7   795.8    0.00      48    999.0  158.2
  40    8:30   53.8    12    3.8   184      6.4   795.8    0.00      48    999.0  158.2
  40    8:40   54.4    12    2.9   182      4.7   795.9    0.00      36    999.0  158.2
  40    8:50   54.6    12    3.4   176      6.0   796.0    0.00     162    999.0  159.3
  40    9:00   56.1    12    3.0   176      7.2   796.1    0.00     217    999.0  159.9
  40    9:10   55.7    12    3.8   183      6.2   796.1    0.00     236    999.0  161.1
  40    9:20   54.4    12    4.3   196      6.2   796.2    0.00      83    999.0  161.1
  40    9:30   54.9    12    3.6   206      6.4   796.3    0.00      28    999.0  160.5
  40    9:40   54.6    13    3.6   207      7.1   796.3    0.00     112    999.0  159.0
  40    9:50   53.7    14    4.4   206      7.8   796.3    0.00      26    999.0  129.6
  40   10:00   53.5    14    5.5   197      9.1   796.3    0.00      26    999.0   87.8
  40   10:10   53.5    15    5.2   199     10.8   796.2    0.00      26    999.0   87.7
  40   10:20   54.0    15    4.6   202      8.5   796.3    0.00     160    999.0   87.8
  40   10:30   54.8    14    3.9   210     10.5   796.3    0.00     378    999.0   87.7
  40   10:40   55.2    14    4.2   214      7.8   796.4    0.00     391    999.0   87.6
  40   10:50   55.6    14    3.4   222      7.2   796.3    0.00     403    999.0   87.4
  40   11:00   55.6    15    3.1   225      9.3   796.3    0.00     413    999.0  117.0
  40   11:10   55.5    15    3.0   215      6.8   796.2    0.00     422    999.0  158.2
  40   11:20   55.7    16    3.4   230      7.2   796.2    0.00     430    999.0  150.4
  40   11:30   55.7    16    3.9   233     10.2   796.2    0.00     436    999.0  116.6
  40   11:40   55.9    16    3.1   238      8.8   796.2    0.00     442    999.0   94.5
  40   11:50   56.1    16    3.1   223      7.0   796.1    0.00     447    999.0   94.1
  40   12:00   56.2    17    2.9   228      6.1   796.0    0.00     445    999.0  122.7
  40   12:10   56.6    16    2.8   233      5.3   795.7    0.00     445    999.0  116.6
  40   12:20   56.6    16    3.7   209      6.2   795.5    0.00     447    999.0  161.9
  40   12:30   57.0    16    3.9   200      8.7   795.3    0.00     442    999.0  162.1
  40   12:40   56.4    16    4.7   203      8.8   795.1    0.00     445    999.0  162.2
  40   12:50   56.6    16    4.6   195      9.2   794.9    0.00     403    999.0  162.2
  40   13:00   56.4    17    3.9   202      9.6   794.7    0.00     412    999.0  161.0
  40   13:10   56.2    16    5.8   195      9.3   794.6    0.00     339    999.0  161.9
  40   13:20   55.9    17    4.4   203      8.0   794.6    0.00     356    999.0  101.5
  40   13:30   56.0    17    3.2   226      8.8   794.4    0.00     300    999.0   86.9
  40   13:40   55.7    18    2.8   219      6.1   794.3    0.00     268    999.0  131.9
  40   13:50   55.8    18    2.8   225      6.1   794.3    0.00     283    999.0  162.0
  40   14:00   55.5    19    2.5   225      5.9   794.3    0.00     288    999.0  159.0
  40   14:10   55.9    19    3.1   218      7.5   794.2    0.00     374    999.0  157.7
  40   14:20   55.7    20    2.9   228      6.7   794.1    0.00     249    999.0  157.6
  40   14:30   54.7    20    2.8   220      5.5   794.0    0.00     147    999.0  157.7
  40   14:40   55.0    21    2.3   227      4.4   793.9    0.00     213    999.0  157.9
  40   14:50   55.3    20    2.2   220      4.7   793.9    0.00     329    999.0  158.7
  40   15:00   55.2    21    4.2   200      7.0   793.9    0.00     108    999.0  157.6
  40   15:10   55.3    21    3.3   216      7.0   793.9    0.00      58    999.0  158.2
  40   15:20   56.0    20    2.4   230      4.2   793.9    0.00      84    999.0  161.1
  40   15:30   55.4    19    3.5   206      5.7   793.9    0.00      66    999.0  161.3
  40   15:40   54.4    22    3.9   201      6.5   793.8    0.00     127    999.0  161.4
  40   15:50   54.2    21    2.3   231      5.8   793.8    0.00     112    999.0  161.1
  40   16:00   54.4    22    2.1   231      4.6   793.9    0.00     112    999.0  160.5
  40   16:10   54.5    22    1.5   236      4.2   793.9    0.00      98    999.0  158.3
  40   16:20   54.4    22    1.7   232      4.7   793.8    0.00      86    999.0  157.9
  40   16:30   53.6    23    2.1   231      4.1   793.8    0.00      78    999.0  157.9
  40   16:40   52.7    24    1.7   212      3.4   793.6    0.00      40    999.0  160.3
  40   16:50   51.8    25    2.5   202      4.2   793.6    0.00      28    999.0  162.0
  40   17:00   51.3    25    1.7   232      3.1   793.6    0.00      23    999.0  162.1
  40   17:10   51.0    26    1.8   246      3.7   793.6    0.00      16    999.0  162.0
  40   17:20   50.5    27    1.8   239      3.0   793.6    0.00       9    999.0  161.9
  40   17:30   50.0    29    1.4   249      2.9   793.6    0.00       4    999.0  162.1
  40   17:40   49.2    31    0.4   248      1.6   793.5    0.00       2    999.0  162.2
  40   17:50   48.6    32    1.2   279      3.0   793.6    0.00       1    999.0  162.2
  40   18:00   48.9    33    1.9   297      3.9   793.7    0.00       0    999.0  162.3
  40   18:10   48.1    34    2.0   318      3.2   793.9    0.00       0    999.0  162.4
  40   18:20   47.6    32    1.7   322      2.7   793.9    0.00       0    999.0  162.3
  40   18:30   47.0    34    1.7   330      2.9   793.9    0.00       0    999.0  162.4
  40   18:40   46.5    35    1.3   333      2.1   794.0    0.00       0    999.0  162.4
  40   18:50   46.0    36    1.8   353      3.3   793.9    0.00       0    999.0  162.4
  40   19:00   45.9    36    1.6   352      2.8   793.9    0.00       0    999.0  162.4
  40   19:10   45.8    37    0.9   354      1.6   793.9    0.00       0    999.0  162.4
  40   19:20   45.9    38    0.5     6      1.4   793.9    0.00       0    999.0  162.4
  40   19:30   46.6    36    0.6   273      2.0   794.0    0.00       0    999.0  162.4
  40   19:40   46.7    37    1.5   284      2.9   794.1    0.00       0    999.0  162.4
  40   19:50   47.0    36    2.3   289      3.2   794.1    0.00       0    999.0  162.4
  40   20:00   46.8    36    1.2   274      2.6   794.1    0.00       0    999.0  162.4
  40   20:10   46.5    35    1.4   251      2.9   794.1    0.00       0    999.0  162.4
  40   20:20   46.5    36    1.2   248      2.1   794.1    0.00       0    999.0  162.3
  40   20:30   46.3    36    1.2   239      2.4   794.2    0.00       0    999.0  162.4
  40   20:40   46.1    37    1.3   245      2.2   794.2    0.00       0    999.0  162.4
  40   20:50   46.0    37    1.2   225      2.1   794.2    0.00       0    999.0  162.4
  40   21:00   46.0    37    1.2   249      1.8   794.3    0.00       0    999.0  162.4
  40   21:10   45.7    37    1.3   248      2.4   794.3    0.00       0    999.0  162.4
  40   21:20   45.6    36    1.2   255      2.6   794.4    0.00       0    999.0  162.3
  40   21:30   45.7    32    1.5   251      3.5   794.5    0.00       0    999.0  162.3
  40   21:40   45.6    33    1.4   228      2.8   794.6    0.00       0    999.0  162.4
  40   21:50   45.5    35    1.3   207      2.2   794.6    0.00       0    999.0  162.4
  40   22:00   45.2    33    2.1   174      3.7   794.6    0.00       0    999.0  162.4
  40   22:10   44.9    33    1.1   142      2.1   794.6    0.00       0    999.0  162.4
  40   22:20   44.6    30    2.3   131      4.5   794.5    0.00       0    999.0  162.4
  40   22:30   44.9    28    3.4   129      5.5   794.5    0.00       0    999.0  162.4
  40   22:40   44.9    26    4.0   129      6.6   794.5    0.00       0    999.0  162.4
  40   22:50   45.2    26    4.8   130      7.7   794.6    0.00       0    999.0  162.2
  40   23:00   45.3    26    5.0   127      8.8   794.5    0.00       0    999.0  162.2
  40   23:10   45.3    28    5.5   122      8.6   794.5    0.00       0    999.0  162.2
  40   23:20   45.6    23    5.7   134      8.2   794.5    0.00       0    999.0  162.1
  40   23:30   45.4    23    4.8   142      8.2   794.5    0.00       0    999.0  101.5
  40   23:40   45.5    23    4.4   144      7.9   794.4    0.00       0    999.0   87.0
  40   23:50   45.7    22    2.8   152      8.3   794.4    0.00       0    999.0   87.0
  41    0:00   45.8    22    2.9   156      7.5   794.4    0.00       0    999.0   87.0
  41    0:10   45.9    21    3.5   159     10.4   794.4    0.00       0    999.0  145.4
  41    0:20   45.9    19    4.5   161      8.3   794.4    0.00       0    999.0  161.7
  41    0:30   46.2    18    5.4   168     11.7   794.4    0.00       0    999.0  160.0
  41    0:40   45.8    19    5.2   174     12.0   794.5    0.00       0    999.0  157.9
  41    0:50   45.2    19    5.0   176      7.5   794.5    0.00       0    999.0  157.9
  41    1:00   45.1    19    3.9   167      6.9   794.5    0.00       0    999.0  157.7
  41    1:10   45.0    18    4.4   173      7.2   794.6    0.00       0    999.0  157.8
  41    1:20   44.9    18    4.3   174      8.2   794.6    0.00       0    999.0  158.0
  41    1:30   44.7    18    3.8   172      6.7   794.6    0.00       0    999.0  158.4
  41    1:40   44.8    18    3.0   160      6.0   794.6    0.00       0    999.0  158.5
  41    1:50   44.9    18    4.1   166      8.3   794.6    0.00       0    999.0  158.1
  41    2:00   44.7    19    3.8   178      6.9   794.5    0.00       0    999.0  160.6
  41    2:10   44.7    18    3.6   168      6.5   794.5    0.00       0    999.0  159.1
  41    2:20   44.6    18    3.0   158      5.5   794.4    0.00       0    999.0  160.4
  41    2:30   44.3    19    2.8   159      7.7   794.4    0.00       0    999.0  161.0
  41    2:40   44.4    19    4.4   160     12.0   794.3    0.00       0    999.0  159.8
  41    2:50   45.1    18    5.8   174     10.3   794.4    0.00       0    999.0  160.3
  41    3:00   44.8    19    7.4   182     11.6   794.4    0.00       0    999.0  160.6
  41    3:10   44.6    19    5.1   190     10.0   794.5    0.00       0    999.0  158.1
  41    3:20   44.8    18    4.3   193      6.4   794.5    0.00       0    999.0  158.1
  41    3:30   44.6    19    4.1   195      6.1   794.4    0.00       0    999.0  158.1
  41    3:40   44.2    19    4.3   199      7.4   794.4    0.00       0    999.0  158.1
  41    3:50   44.1    20    5.5   197     10.2   794.4    0.00       0    999.0  158.1
  41    4:00   44.2    20    7.2   188     10.2   794.4    0.00       0    999.0  158.1
  41    4:10   44.4    20    6.1   181     10.8   794.3    0.00       0    999.0  158.1
  41    4:20   44.2    20    5.6   180      9.2   794.2    0.00       0    999.0  158.1
  41    4:30   43.9    20    4.0   169      6.4   794.2    0.00       0    999.0  160.6
  41    4:40   44.0    19    4.1   163      9.6   794.1    0.00       0    999.0  161.0
  41    4:50   44.1    19    3.7   159      6.5   794.0    0.00       0    999.0  160.9
  41    5:00   43.9    19    3.8   161      8.6   794.0    0.00       0    999.0  161.3
  41    5:10   44.0    19    5.1   168     12.2   794.1    0.00       0    999.0  161.4
  41    5:20   44.3    18    4.9   168     10.5   794.1    0.00       0    999.0  161.3
  41    5:30   44.2    19    5.0   169      9.1   794.0    0.00       0    999.0  161.2
  41    5:40   44.2    19    6.3   176     14.6   794.1    0.00       0    999.0  161.3
  41    5:50   44.4    18    5.9   178      9.6   794.3    0.00       0    999.0  160.6
  41    6:00   44.5    18    5.3   182      8.8   794.4    0.00       0    999.0  158.0
  41    6:10   44.4    18    3.9   175      5.7   794.4    0.00       0    999.0  158.0
  41    6:20   44.4    17    3.2   162      6.9   794.3    0.00       0    999.0  157.9
  41    6:30   44.4    17    3.2   166      6.7   794.3    0.00       0    999.0  158.0

Return to Alpha graphs page.


Western Regional Climate Center,wrcc@dri.edu